Regional Weather Roundup
Issued by NWS Green Bay, WI

Home | Current Version | Previous Version | Text Only | Print | Product List | Glossary On
Versions: 1 2 3 4 5 6 7 8 9 10 11 12 13 14 15 16 17 18 19 20 21 22 23 24 25 26 27 28 29 30 31 32 33 34 35 36 37 38 39 40 41 42 43 44 45 46 47 48 49 50
000
ASUS43 KGRB 201711
RWRGRB

NORTH-CENTRAL AND NORTHEAST WISCONSIN REGIONAL WEATHER ROUNDUP
NATIONAL WEATHER SERVICE GREEN BAY WI
1100 AM CST MON NOV 20 2017

WIZ005-009-010>012-018-019-201800-
NORTH CENTRAL WISCONSIN

CITY           SKY/WX    TMP DP  RH WIND       PRES   REMARKS
IRONWOOD       CLOUDY    33  26  75 S9        29.57F
MANITOWISH WTR CLOUDY    32  30  90 S7        29.59F
ARBOR VITAE    CLOUDY    37  30  78 S8        29.60F
EAGLE RIVER    CLOUDY    34  27  74 S6        29.61F
LAND O LAKES   CLOUDY    33  29  82 S5        29.61F
RHINELANDER    CLOUDY    36  27  69 S7        29.62F
PHILLIPS       CLOUDY    34  28  77 S6        29.59F
ANTIGO         CLOUDY    36  28  73 SW7       29.66F
TOMAHAWK       CLOUDY    36  28  72 S3        29.63F
MERRILL        CLOUDY    37  28  67 SW6       29.66F
$$

WIZ013-073-201800-
NORTHEAST WISCONSIN

CITY           SKY/WX    TMP DP  RH WIND       PRES   REMARKS
IRON MOUNTAIN  CLOUDY    31  21  66 SE7       29.65F
MARINETTE      SUNNY     38  26  62 VRB6      29.73F
OCONTO         CLOUDY    39  28  63 SW6       29.73F
$$

WIZ017-030-035>037-045-201800-
CENTRAL WISCONSIN

CITY           SKY/WX    TMP DP  RH WIND       PRES   REMARKS
MEDFORD        CLOUDY    37  28  72 S9        29.62F
WAUSAU         CLOUDY    37  27  67 S8        29.66F
MOSINEE        PTSUNNY   37  30  75 S12       29.68F
MARSHFIELD     CLOUDY    40  27  59 S8        29.64F
WISC RAPIDS    CLOUDY    42  29  59 SW7       29.69F
STEVENS POINT  CLOUDY    38  27  62 S7        29.68F
WAUPACA        CLOUDY    43  28  55 S8        29.71F
SHAWANO        CLOUDY    39  28  63 S5        29.71F
CLINTONVILLE   CLOUDY    39  27  60 S7        29.71F
WAUTOMA        CLOUDY    42  28  57 S9        29.71F
$$

WIZ038-039-048-051-201800-
FOX VALLEY

CITY           SKY/WX    TMP DP  RH WIND       PRES   REMARKS
NWS GREEN BAY  CLOUDY    39  31  72 SW12      29.73F
APPLETON       MOSUNNY   39  25  56 SW16      29.72F
OSHKOSH        CLOUDY    40  29  64 S14       29.73F
FOND DU LAC    CLOUDY    41  28  60 S14       29.74F
$$

WIZ022-050-052-201800-
EAST CENTRAL WISCONSIN

CITY           SKY/WX    TMP DP  RH WIND       PRES   REMARKS
EPHRAIM        FAIR      38  28  66 S8        29.73F
WASHINGTON ISL FAIR      38  30  73 S7        29.72F
STURGEON BAY   CLOUDY    39  28  64 S6        29.74F
MANITOWOC      CLOUDY    43  28  55 SW6       29.76F
SHEBOYGAN      CLOUDY    43  29  57 SW12      29.75F
$$

LMZ563-521-522-541>543-201800-
LAKESHORE

STATION/POSITION TIME  TEMP    WIND        PRES    VSBY  WAVE
                       AIR SEA DIR/SP/G                  HT/PER
                 (UTC) (F)     (DEG/KT/KT) (MB)    (MI)  (FT/S)
SHEBOYGAN LKSHOR 1700   42     220/ 13/ 15 1008.0F
KEWAUNEE LKSHORE 1642   40     190/  5/  8 1007.0F
NORTHPORT PIER   1700   39     170/  5/ 11 1006.8
N MID LAKE BUOY  1650   40 48  200/ 14/ 17 1008.5F         2/ 5
SISTER BAY LKSHO 1704   41     180/  9/ 12   N/A
MENOMINEE LKSHOR 1642   36     180/  9/ 11 1006.9F
$$




USA.gov is the U.S. government's official web portal to all federal, state and local government web resources and services.